| time (UTC) | temp C | wind direction | speed KPH | gust KPH | rain 1hr cm | rain 24hr cm | rain mn cm | humidity % | barometer mb |
| 20260502130503 | 18 | 126 | 11.3 | 22.5 | 0.00 | 0.00 | 0.00 | 69 | 1022.5 |
| 20260502123503 | 19 | 127 | 8.0 | 20.9 | 0.00 | 0.00 | 0.00 | 62 | 1022.6 |
| 20260502123003 | 19 | 124 | 8.0 | 17.7 | 0.00 | 0.00 | 0.00 | 63 | 1022.3 |
| 20260502122503 | 19 | 136 | 8.0 | 17.7 | 0.00 | 0.00 | 0.00 | 62 | 1022.5 |
| 20260502122218 | 19 | 136 | 9.7 | 17.7 | 0.00 | 0.00 | 0.00 | 62 | 1022.6 |
| 20260502121503 | 19 | 139 | 9.7 | 17.7 | 0.00 | 0.00 | 0.00 | 60 | 1022.4 |
| 20260502121003 | 19 | 137 | 11.3 | 19.3 | 0.00 | 0.00 | 0.00 | 62 | 1022.4 |
| 20260502120503 | 18 | 141 | 9.7 | 19.3 | 0.00 | 0.00 | 0.00 | 59 | 1022.3 |
| 20260502115717 | 18 | 150 | 9.7 | 19.3 | 0.00 | 0.00 | 0.00 | 61 | 1022.5 |
| 20260502115003 | 19 | 135 | 8.0 | 17.7 | 0.00 | 0.00 | 0.00 | 58 | 1022.6 |
| 20260502114503 | 19 | 128 | 6.4 | 17.7 | 0.00 | 0.00 | 0.00 | 58 | 1022.6 |
| 20260502114003 | 20 | 128 | 6.4 | 17.7 | 0.00 | 0.00 | 0.00 | 57 | 1022.7 |
| 20260502113503 | 19 | 119 | 6.4 | 16.1 | 0.00 | 0.00 | 0.00 | 58 | 1022.6 |
| 20260502113003 | 19 | 134 | 8.0 | 16.1 | 0.00 | 0.00 | 0.00 | 57 | 1022.7 |
| 20260502112503 | 20 | 150 | 8.0 | 17.7 | 0.00 | 0.00 | 0.00 | 55 | 1022.6 |
| 20260502112003 | 19 | 134 | 8.0 | 17.7 | 0.00 | 0.00 | 0.00 | 54 | 1022.7 |
| 20260502111503 | 19 | 117 | 8.0 | 17.7 | 0.00 | 0.00 | 0.00 | 56 | 1022.7 |
| 20260502111003 | 19 | 130 | 8.0 | 17.7 | 0.00 | 0.00 | 0.00 | 54 | 1022.8 |
| 20260502110503 | 19 | 132 | 4.8 | 12.9 | 0.00 | 0.00 | 0.00 | 55 | 1023.0 |
| 20260502110003 | 19 | 163 | 6.4 | 16.1 | 0.00 | 0.00 | 0.00 | 52 | 1022.9 |
| 20260502105503 | 19 | 177 | 8.0 | 16.1 | 0.00 | 0.00 | 0.00 | 53 | 1023.2 |
| 20260502105003 | 19 | 161 | 6.4 | 14.5 | 0.00 | 0.00 | 0.00 | 54 | 1023.0 |
| 20260502104503 | 19 | 150 | 9.7 | 20.9 | 0.00 | 0.00 | 0.00 | 54 | 1023.3 |
| 20260502104003 | 19 | 158 | 11.3 | 20.9 | 0.00 | 0.00 | 0.00 | 52 | 1023.2 |
| 20260502103503 | 19 | 166 | 9.7 | 20.9 | 0.00 | 0.00 | 0.00 | 56 | 1023.1 |
| 20260502103003 | 20 | 153 | 8.0 | 20.9 | 0.00 | 0.00 | 0.00 | 56 | 1023.2 |
| 20260502102503 | 20 | 102 | 6.4 | 16.1 | 0.00 | 0.00 | 0.00 | 52 | 1023.1 |
| 20260502102003 | 20 | 86 | 8.0 | 17.7 | 0.00 | 0.00 | 0.00 | 53 | 1023.0 |
| 20260502101503 | 20 | 80 | 8.0 | 17.7 | 0.00 | 0.00 | 0.00 | 53 | 1023.2 |
| 20260502101217 | 20 | 68 | 8.0 | 17.7 | 0.00 | 0.00 | 0.00 | 52 | 1022.9 |
| 20260502100503 | 19 | 65 | 6.4 | 16.1 | 0.00 | 0.00 | 0.00 | 53 | 1023.3 |
| 20260502091503 | 18 | 88 | 3.2 | 9.7 | 0.00 | 0.00 | 0.00 | 61 | 1023.5 |
| 20260502091003 | 18 | 61 | 4.8 | 9.7 | 0.00 | 0.00 | 0.00 | 62 | 1023.9 |
| 20260502090503 | 17 | 47 | 4.8 | 9.7 | 0.00 | 0.00 | 0.00 | 63 | 1023.7 |
| 20260502071503 | 16 | 185 | 0.0 | 3.2 | 0.00 | 0.00 | 0.00 | 71 | 1023.7 |
| 20260502071003 | 16 | 192 | 0.0 | 3.2 | 0.00 | 0.00 | 0.00 | 71 | 1023.6 |
| 20260502070503 | 16 | 274 | 0.0 | 3.2 | 0.00 | 0.00 | 0.00 | 71 | 1023.7 |
| 20260502070003 | 16 | 298 | 1.6 | 4.8 | 0.00 | 0.00 | 0.00 | 72 | 1023.9 |
| 20260502065717 | 16 | 295 | 1.6 | 4.8 | 0.00 | 0.00 | 0.00 | 74 | 1023.8 |
| 20260502065003 | 15 | 288 | 1.6 | 4.8 | 0.00 | 0.00 | 0.00 | 77 | 1023.8 |
| 20260502064503 | 15 | 278 | 1.6 | 3.2 | 0.00 | 0.00 | 0.00 | 80 | 1023.6 |
| 20260502064003 | 15 | 60 | 1.6 | 4.8 | 0.00 | 0.00 | 0.00 | 81 | 1023.5 |
| 20260502063503 | 15 | 78 | 3.2 | 4.8 | 0.00 | 0.00 | 0.00 | 81 | 1023.7 |
| 20260502063003 | 15 | 97 | 3.2 | 4.8 | 0.00 | 0.00 | 0.00 | 81 | 1023.8 |
| 20260502062503 | 15 | 112 | 1.6 | 4.8 | 0.00 | 0.00 | 0.00 | 82 | 1023.7 |
| 20260502062003 | 15 | 108 | 1.6 | 4.8 | 0.00 | 0.00 | 0.00 | 82 | 1023.6 |
| 20260502061503 | 15 | 97 | 1.6 | 4.8 | 0.00 | 0.00 | 0.00 | 82 | 1023.6 |
| 20260502061003 | 15 | 265 | 1.6 | 4.8 | 0.00 | 0.00 | 0.00 | 81 | 1023.7 |
| 20260502060503 | 15 | 234 | 1.6 | 4.8 | 0.00 | 0.00 | 0.00 | 82 | 1023.7 |
| 20260502060218 | 15 | 210 | 1.6 | 4.8 | 0.00 | 0.00 | 0.00 | 82 | 1023.7 |
| 20260502055503 | 15 | 216 | 1.6 | 4.8 | 0.00 | 0.00 | 0.00 | 81 | 1023.6 |
| 20260502055003 | 15 | 236 | 1.6 | 4.8 | 0.00 | 0.00 | 0.00 | 81 | 1023.5 |
| 20260502054503 | 15 | 263 | 3.2 | 6.4 | 0.00 | 0.00 | 0.00 | 81 | 1023.7 |
| 20260502054003 | 15 | 256 | 3.2 | 6.4 | 0.00 | 0.00 | 0.00 | 81 | 1023.6 |
| 20260502053503 | 15 | 236 | 1.6 | 4.8 | 0.00 | 0.00 | 0.00 | 82 | 1023.5 |
| 20260502053003 | 15 | 227 | 3.2 | 4.8 | 0.00 | 0.00 | 0.00 | 82 | 1023.4 |
| 20260502052503 | 15 | 214 | 1.6 | 4.8 | 0.00 | 0.00 | 0.00 | 82 | 1023.4 |
| 20260502052003 | 15 | 197 | 1.6 | 4.8 | 0.00 | 0.00 | 0.00 | 81 | 1023.4 |
| 20260502051503 | 15 | 14 | 1.6 | 4.8 | 0.00 | 0.00 | 0.00 | 79 | 1023.2 |
| 20260502051003 | 15 | 359 | 1.6 | 4.8 | 0.00 | 0.00 | 0.00 | 81 | 1023.6 |
| 20260502050503 | 15 | 330 | 1.6 | 4.8 | 0.00 | 0.00 | 0.00 | 83 | 1023.5 |
| 20260502050003 | 15 | 263 | 1.6 | 4.8 | 0.00 | 0.00 | 0.00 | 84 | 1023.4 |
| 20260502045503 | 15 | 224 | 1.6 | 4.8 | 0.00 | 0.00 | 0.00 | 83 | 1023.2 |
| 20260502045003 | 15 | 86 | 1.6 | 4.8 | 0.00 | 0.00 | 0.00 | 82 | 1023.5 |
| 20260502044718 | 15 | 114 | 1.6 | 4.8 | 0.00 | 0.00 | 0.00 | 82 | 1023.2 |
| 20260502044003 | 15 | 200 | 1.6 | 4.8 | 0.00 | 0.00 | 0.00 | 83 | 1023.3 |
| 20260502043503 | 15 | 194 | 3.2 | 4.8 | 0.00 | 0.00 | 0.00 | 83 | 1023.3 |
| 20260502043217 | 15 | 190 | 3.2 | 4.8 | 0.00 | 0.00 | 0.00 | 83 | 1023.5 |
| 20260502042503 | 15 | 195 | 1.6 | 4.8 | 0.00 | 0.00 | 0.00 | 82 | 1023.1 |
| 20260502042003 | 15 | 193 | 3.2 | 4.8 | 0.00 | 0.00 | 0.00 | 82 | 1023.3 |
| 20260502041503 | 15 | 178 | 3.2 | 4.8 | 0.00 | 0.00 | 0.00 | 81 | 1023.2 |
| 20260502041003 | 15 | 151 | 1.6 | 4.8 | 0.00 | 0.00 | 0.00 | 81 | 1023.4 |
| 20260502040503 | 15 | 147 | 1.6 | 4.8 | 0.00 | 0.00 | 0.00 | 80 | 1023.3 |
| 20260502040003 | 15 | 129 | 1.6 | 3.2 | 0.00 | 0.00 | 0.00 | 80 | 1023.4 |
| 20260502035503 | 15 | 48 | 1.6 | 3.2 | 0.00 | 0.00 | 0.00 | 80 | 1023.3 |
| 20260502035217 | 15 | 4 | 1.6 | 3.2 | 0.00 | 0.00 | 0.00 | 80 | 1023.5 |
| 20260502034503 | 15 | 205 | 1.6 | 3.2 | 0.00 | 0.00 | 0.00 | 81 | 1023.2 |
| 20260502034003 | 15 | 192 | 1.6 | 3.2 | 0.00 | 0.00 | 0.00 | 81 | 1023.3 |
| 20260502033503 | 15 | 215 | 1.6 | 3.2 | 0.00 | 0.00 | 0.00 | 81 | 1023.4 |
| 20260502033003 | 15 | 241 | 1.6 | 3.2 | 0.00 | 0.00 | 0.00 | 80 | 1023.5 |
| 20260502032503 | 15 | 321 | 0.0 | 3.2 | 0.00 | 0.00 | 0.00 | 80 | 1023.4 |
| 20260502032003 | 15 | 26 | 1.6 | 6.4 | 0.00 | 0.00 | 0.00 | 81 | 1023.4 |
| 20260502031503 | 15 | 28 | 1.6 | 6.4 | 0.00 | 0.00 | 0.00 | 81 | 1023.5 |
| 20260502031216 | 15 | 24 | 1.6 | 3.2 | 0.00 | 0.00 | 0.00 | 81 | 1023.5 |
| 20260502030717 | 15 | 27 | 1.6 | 4.8 | 0.00 | 0.00 | 0.00 | 82 | 1023.7 |
| 20260502030003 | 15 | 36 | 1.6 | 4.8 | 0.00 | 0.00 | 0.00 | 82 | 1023.6 |
| 20260502025503 | 15 | 128 | 1.6 | 4.8 | 0.00 | 0.00 | 0.00 | 82 | 1023.6 |
| 20260502025003 | 15 | 123 | 3.2 | 6.4 | 0.00 | 0.00 | 0.00 | 81 | 1023.6 |
| 20260502024503 | 15 | 103 | 1.6 | 6.4 | 0.00 | 0.00 | 0.00 | 81 | 1023.7 |
| 20260502024003 | 15 | 110 | 1.6 | 3.2 | 0.00 | 0.00 | 0.00 | 81 | 1023.6 |
| 20260502023503 | 15 | 121 | 1.6 | 3.2 | 0.00 | 0.00 | 0.00 | 81 | 1023.7 |
| 20260502023003 | 15 | 107 | 1.6 | 3.2 | 0.00 | 0.00 | 0.00 | 81 | 1023.5 |
| 20260502022503 | 15 | 73 | 1.6 | 3.2 | 0.00 | 0.00 | 0.00 | 82 | 1023.4 |
| 20260502022003 | 15 | 29 | 1.6 | 4.8 | 0.00 | 0.00 | 0.00 | 81 | 1023.7 |
| 20260502021503 | 15 | 66 | 1.6 | 4.8 | 0.00 | 0.00 | 0.00 | 81 | 1023.7 |
| 20260502021003 | 15 | 97 | 1.6 | 4.8 | 0.00 | 0.00 | 0.00 | 80 | 1023.4 |
| 20260502020503 | 15 | 115 | 1.6 | 4.8 | 0.00 | 0.00 | 0.00 | 80 | 1023.7 |
| 20260502020003 | 15 | 120 | 1.6 | 3.2 | 0.00 | 0.00 | 0.00 | 81 | 1023.7 |
| 20260502015503 | 15 | 93 | 1.6 | 3.2 | 0.00 | 0.00 | 0.00 | 80 | 1023.6 |
| 20260502015003 | 15 | 98 | 1.6 | 4.8 | 0.00 | 0.00 | 0.00 | 80 | 1023.8 |
| 20260502014503 | 15 | 70 | 1.6 | 4.8 | 0.00 | 0.00 | 0.00 | 80 | 1023.7 |
| 20260502014218 | 15 | 27 | 1.6 | 4.8 | 0.00 | 0.00 | 0.00 | 80 | 1023.8 |
| 20260502013503 | 15 | 49 | 3.2 | 6.4 | 0.00 | 0.00 | 0.00 | 80 | 1023.6 |
| 20260502013218 | 15 | 79 | 3.2 | 6.4 | 0.00 | 0.00 | 0.00 | 80 | 1023.7 |
| 20260502012503 | 15 | 122 | 3.2 | 8.0 | 0.00 | 0.00 | 0.00 | 79 | 1023.8 |
| 20260502012003 | 15 | 128 | 1.6 | 8.0 | 0.00 | 0.00 | 0.00 | 79 | 1023.9 |
| 20260502011717 | 15 | 107 | 1.6 | 4.8 | 0.00 | 0.00 | 0.00 | 79 | 1023.8 |
| 20260502011003 | 15 | 71 | 1.6 | 6.4 | 0.00 | 0.00 | 0.00 | 79 | 1024.0 |
| 20260502010503 | 15 | 81 | 3.2 | 8.0 | 0.00 | 0.00 | 0.00 | 79 | 1024.1 |
| 20260502010003 | 15 | 93 | 3.2 | 8.0 | 0.00 | 0.00 | 0.00 | 78 | 1023.9 |
| 20260502005717 | 15 | 104 | 3.2 | 6.4 | 0.00 | 0.00 | 0.00 | 78 | 1024.0 |
| 20260502005218 | 15 | 116 | 1.6 | 4.8 | 0.00 | 0.00 | 0.00 | 79 | 1024.2 |
| 20260502004503 | 15 | 117 | 1.6 | 4.8 | 0.00 | 0.00 | 0.00 | 79 | 1024.0 |
| 20260502004003 | 14 | 114 | 1.6 | 4.8 | 0.00 | 0.00 | 0.00 | 80 | 1024.2 |
| 20260502003503 | 14 | 97 | 1.6 | 4.8 | 0.00 | 0.00 | 0.00 | 80 | 1024.2 |
| 20260502003217 | 14 | 132 | 1.6 | 6.4 | 0.00 | 0.00 | 0.00 | 80 | 1024.4 |
| 20260502002503 | 14 | 119 | 3.2 | 6.4 | 0.00 | 0.00 | 0.00 | 79 | 1024.2 |
| 20260502002003 | 14 | 103 | 3.2 | 4.8 | 0.00 | 0.00 | 0.00 | 79 | 1024.6 |
| 20260502001503 | 14 | 113 | 1.6 | 4.8 | 0.00 | 0.00 | 0.00 | 79 | 1024.5 |
| 20260502001003 | 14 | 123 | 1.6 | 3.2 | 0.00 | 0.00 | 0.00 | 79 | 1024.5 |
| 20260502000716 | 14 | 69 | 1.6 | 4.8 | 0.00 | 0.00 | 0.00 | 79 | 1024.8 |
| 20260502000003 | 14 | 27 | 1.6 | 4.8 | 0.00 | 0.00 | 0.00 | 79 | 1024.7 |
| 20260501235503 | 14 | 20 | 1.6 | 6.4 | 0.00 | 0.00 | 0.00 | 79 | 1024.9 |
| 20260501235003 | 14 | 106 | 1.6 | 6.4 | 0.00 | 0.00 | 0.00 | 79 | 1024.9 |
| 20260501234503 | 14 | 91 | 3.2 | 6.4 | 0.00 | 0.00 | 0.00 | 79 | 1024.7 |
| 20260501234217 | 14 | 79 | 3.2 | 6.4 | 0.00 | 0.00 | 0.00 | 79 | 1024.8 |
| 20260501233503 | 14 | 110 | 3.2 | 6.4 | 0.00 | 0.00 | 0.00 | 79 | 1024.8 |
| 20260501233003 | 14 | 121 | 3.2 | 6.4 | 0.00 | 0.00 | 0.00 | 80 | 1024.8 |
| 20260501232503 | 14 | 117 | 1.6 | 6.4 | 0.00 | 0.00 | 0.00 | 80 | 1024.8 |
| 20260501232003 | 13 | 54 | 0.0 | 3.2 | 0.00 | 0.00 | 0.00 | 80 | 1024.6 |
| 20260501231503 | 13 | 1 | 1.6 | 4.8 | 0.00 | 0.00 | 0.00 | 80 | 1024.7 |
| 20260501231003 | 13 | 111 | 3.2 | 8.0 | 0.00 | 0.00 | 0.00 | 80 | 1024.8 |
| 20260501230503 | 13 | 101 | 3.2 | 8.0 | 0.00 | 0.00 | 0.00 | 80 | 1025.0 |
| 20260501230003 | 13 | 116 | 3.2 | 6.4 | 0.00 | 0.00 | 0.00 | 80 | 1024.9 |
| 20260501225718 | 13 | 122 | 1.6 | 6.4 | 0.00 | 0.00 | 0.00 | 80 | 1024.7 |
| 20260501225003 | 13 | 82 | 1.6 | 4.8 | 0.00 | 0.00 | 0.00 | 80 | 1024.9 |
| 20260501224503 | 13 | 48 | 1.6 | 3.2 | 0.00 | 0.00 | 0.00 | 81 | 1024.8 |
| 20260501224003 | 13 | 18 | 1.6 | 9.7 | 0.00 | 0.00 | 0.00 | 81 | 1024.8 |
| 20260501223503 | 13 | 38 | 3.2 | 9.7 | 0.00 | 0.00 | 0.00 | 81 | 1024.7 |
| 20260501223003 | 13 | 78 | 1.6 | 8.0 | 0.00 | 0.00 | 0.00 | 81 | 1024.7 |
| 20260501222503 | 13 | 81 | 1.6 | 3.2 | 0.00 | 0.00 | 0.00 | 81 | 1024.5 |
| 20260501222003 | 13 | 98 | 1.6 | 4.8 | 0.00 | 0.00 | 0.00 | 81 | 1024.8 |
| 20260501221503 | 13 | 112 | 1.6 | 4.8 | 0.00 | 0.00 | 0.00 | 81 | 1024.7 |
| 20260501221003 | 13 | 98 | 1.6 | 4.8 | 0.00 | 0.00 | 0.00 | 81 | 1024.8 |
| 20260501220503 | 13 | 111 | 1.6 | 4.8 | 0.00 | 0.00 | 0.00 | 82 | 1024.8 |
| 20260501220217 | 13 | 103 | 1.6 | 4.8 | 0.00 | 0.00 | 0.00 | 81 | 1024.7 |
| 20260501215503 | 13 | 315 | 1.6 | 4.8 | 0.00 | 0.00 | 0.00 | 82 | 1024.9 |
| 20260501215003 | 13 | 318 | 1.6 | 4.8 | 0.00 | 0.00 | 0.00 | 82 | 1024.8 |
| 20260501214503 | 13 | 109 | 1.6 | 3.2 | 0.00 | 0.00 | 0.00 | 82 | 1024.8 |
| 20260501214003 | 13 | 140 | 0.0 | 3.2 | 0.00 | 0.00 | 0.00 | 82 | 1024.8 |
| 20260501213717 | 13 | 61 | 0.0 | 3.2 | 0.00 | 0.00 | 0.00 | 82 | 1024.7 |
| 20260501213003 | 13 | 43 | 0.0 | 3.2 | 0.00 | 0.00 | 0.00 | 82 | 1024.7 |
| 20260501212503 | 13 | 164 | 0.0 | 3.2 | 0.00 | 0.00 | 0.00 | 81 | 1024.7 |
| 20260501212003 | 14 | 198 | 0.0 | 3.2 | 0.00 | 0.00 | 0.00 | 81 | 1024.7 |
| 20260501211503 | 14 | 306 | 0.0 | 3.2 | 0.00 | 0.00 | 0.00 | 81 | 1024.7 |
| 20260501211003 | 14 | 351 | 0.0 | 3.2 | 0.00 | 0.00 | 0.00 | 81 | 1024.5 |
| 20260501210503 | 14 | 85 | 0.0 | 3.2 | 0.00 | 0.00 | 0.00 | 81 | 1024.8 |
| 20260501210003 | 14 | 73 | 1.6 | 3.2 | 0.00 | 0.00 | 0.00 | 81 | 1024.8 |
| 20260501205503 | 14 | 15 | 0.0 | 3.2 | 0.00 | 0.00 | 0.00 | 82 | 1024.9 |
| 20260501205003 | 14 | 298 | 0.0 | 3.2 | 0.00 | 0.00 | 0.00 | 82 | 1024.7 |
| 20260501204503 | 14 | 300 | 1.6 | 4.8 | 0.00 | 0.00 | 0.00 | 81 | 1024.7 |
| 20260501204003 | 14 | 60 | 1.6 | 4.8 | 0.00 | 0.00 | 0.00 | 81 | 1024.8 |
| 20260501203503 | 15 | 33 | 1.6 | 4.8 | 0.00 | 0.00 | 0.00 | 82 | 1024.8 |
| 20260501203003 | 14 | 328 | 1.6 | 3.2 | 0.00 | 0.00 | 0.00 | 81 | 1024.7 |
| 20260501202503 | 14 | 272 | 0.0 | 3.2 | 0.00 | 0.00 | 0.00 | 81 | 1024.5 |
| 20260501202003 | 15 | 281 | 0.0 | 3.2 | 0.00 | 0.00 | 0.00 | 80 | 1024.7 |
| 20260501201503 | 15 | 296 | 0.0 | 3.2 | 0.00 | 0.00 | 0.00 | 80 | 1024.6 |
| 20260501201003 | 15 | 234 | 0.0 | 3.2 | 0.00 | 0.00 | 0.00 | 80 | 1024.3 |
| 20260501200503 | 15 | 265 | 0.0 | 3.2 | 0.00 | 0.00 | 0.00 | 80 | 1024.5 |
| 20260501200003 | 15 | 300 | 1.6 | 4.8 | 0.00 | 0.00 | 0.00 | 79 | 1024.4 |
| 20260501195717 | 15 | 296 | 1.6 | 4.8 | 0.00 | 0.00 | 0.00 | 79 | 1024.4 |
| 20260501195003 | 15 | 279 | 1.6 | 3.2 | 0.00 | 0.00 | 0.00 | 78 | 1024.3 |
| 20260501194717 | 16 | 315 | 0.0 | 3.2 | 0.00 | 0.00 | 0.00 | 78 | 1024.3 |
| 20260501194003 | 16 | 297 | 1.6 | 3.2 | 0.00 | 0.00 | 0.00 | 78 | 1024.2 |
| 20260501193503 | 16 | 68 | 1.6 | 4.8 | 0.00 | 0.00 | 0.00 | 77 | 1024.1 |
| 20260501193003 | 16 | 92 | 1.6 | 4.8 | 0.00 | 0.00 | 0.00 | 76 | 1024.2 |
| 20260501192503 | 16 | 67 | 1.6 | 4.8 | 0.00 | 0.00 | 0.00 | 76 | 1024.1 |
| 20260501192003 | 16 | 8 | 3.2 | 6.4 | 0.00 | 0.00 | 0.00 | 76 | 1024.0 |
| 20260501191503 | 16 | 3 | 3.2 | 6.4 | 0.00 | 0.00 | 0.00 | 76 | 1023.9 |
| 20260501191218 | 16 | 13 | 3.2 | 6.4 | 0.00 | 0.00 | 0.00 | 75 | 1023.9 |
| 20260501190503 | 16 | 185 | 1.6 | 6.4 | 0.00 | 0.00 | 0.00 | 75 | 1023.7 |
| 20260501190003 | 17 | 207 | 3.2 | 6.4 | 0.00 | 0.00 | 0.00 | 74 | 1023.6 |
| 20260501185503 | 17 | 157 | 3.2 | 6.4 | 0.00 | 0.00 | 0.00 | 73 | 1023.6 |
| 20260501185003 | 17 | 117 | 3.2 | 8.0 | 0.00 | 0.00 | 0.00 | 73 | 1023.3 |
| 20260501184718 | 17 | 113 | 3.2 | 8.0 | 0.00 | 0.00 | 0.00 | 74 | 1023.3 |
| 20260501184217 | 17 | 113 | 4.8 | 9.7 | 0.00 | 0.00 | 0.00 | 74 | 1023.1 |
| 20260501183503 | 17 | 103 | 6.4 | 14.5 | 0.00 | 0.00 | 0.00 | 74 | 1023.1 |
| 20260501183003 | 17 | 98 | 4.8 | 14.5 | 0.00 | 0.00 | 0.00 | 75 | 1023.1 |
| 20260501182503 | 17 | 93 | 4.8 | 12.9 | 0.00 | 0.00 | 0.00 | 74 | 1023.0 |
| 20260501182003 | 17 | 97 | 6.4 | 12.9 | 0.00 | 0.00 | 0.00 | 75 | 1023.1 |
| 20260501181503 | 17 | 91 | 6.4 | 14.5 | 0.00 | 0.00 | 0.00 | 75 | 1023.0 |
| 20260501181003 | 17 | 88 | 4.8 | 14.5 | 0.00 | 0.00 | 0.00 | 75 | 1022.9 |
| 20260501180503 | 17 | 97 | 4.8 | 9.7 | 0.00 | 0.00 | 0.00 | 75 | 1023.0 |
| 20260501180217 | 17 | 101 | 6.4 | 17.7 | 0.00 | 0.00 | 0.00 | 75 | 1022.8 |
| 20260501175503 | 17 | 104 | 6.4 | 17.7 | 0.00 | 0.00 | 0.00 | 73 | 1022.8 |
| 20260501175003 | 17 | 111 | 4.8 | 9.7 | 0.00 | 0.00 | 0.00 | 72 | 1023.0 |
| 20260501174503 | 18 | 108 | 4.8 | 14.5 | 0.00 | 0.00 | 0.00 | 71 | 1022.8 |
| 20260501174003 | 18 | 103 | 6.4 | 14.5 | 0.00 | 0.00 | 0.00 | 71 | 1022.7 |
| 20260501173503 | 18 | 112 | 6.4 | 17.7 | 0.00 | 0.00 | 0.00 | 70 | 1022.7 |
| 20260501173003 | 18 | 130 | 8.0 | 17.7 | 0.00 | 0.00 | 0.00 | 70 | 1022.8 |
| 20260501172503 | 18 | 128 | 6.4 | 17.7 | 0.00 | 0.00 | 0.00 | 68 | 1022.6 |
| 20260501172003 | 18 | 121 | 4.8 | 11.3 | 0.00 | 0.00 | 0.00 | 66 | 1022.4 |
| 20260501171503 | 19 | 121 | 4.8 | 11.3 | 0.00 | 0.00 | 0.00 | 65 | 1022.6 |
| 20260501171003 | 19 | 126 | 4.8 | 12.9 | 0.00 | 0.00 | 0.00 | 64 | 1022.6 |
| 20260501170718 | 19 | 127 | 4.8 | 14.5 | 0.00 | 0.00 | 0.00 | 65 | 1022.4 |
| 20260501170217 | 19 | 136 | 8.0 | 17.7 | 0.00 | 0.00 | 0.00 | 64 | 1022.7 |
| 20260501165503 | 19 | 137 | 8.0 | 19.3 | 0.00 | 0.00 | 0.00 | 63 | 1022.5 |
| 20260501165003 | 19 | 124 | 8.0 | 19.3 | 0.00 | 0.00 | 0.00 | 64 | 1022.4 |
| 20260501164718 | 19 | 125 | 8.0 | 19.3 | 0.00 | 0.00 | 0.00 | 64 | 1022.4 |
| 20260501164217 | 19 | 122 | 8.0 | 19.3 | 0.00 | 0.00 | 0.00 | 64 | 1022.5 |
| 20260501163503 | 19 | 124 | 11.3 | 20.9 | 0.00 | 0.00 | 0.00 | 63 | 1022.3 |
| 20260501163003 | 19 | 122 | 11.3 | 27.4 | 0.00 | 0.00 | 0.00 | 63 | 1022.2 |
| 20260501162717 | 19 | 124 | 11.3 | 27.4 | 0.00 | 0.00 | 0.00 | 63 | 1022.1 |
| 20260501162003 | 19 | 121 | 9.7 | 19.3 | 0.00 | 0.00 | 0.00 | 63 | 1022.1 |
| 20260501161503 | 19 | 108 | 9.7 | 22.5 | 0.00 | 0.00 | 0.00 | 63 | 1022.2 |
| 20260501161003 | 19 | 100 | 8.0 | 22.5 | 0.00 | 0.00 | 0.00 | 63 | 1022.3 |
| 20260501160503 | 19 | 103 | 8.0 | 17.7 | 0.00 | 0.00 | 0.00 | 62 | 1022.3 |
| 20260501160218 | 19 | 103 | 8.0 | 20.9 | 0.00 | 0.00 | 0.00 | 62 | 1022.2 |
| 20260501155717 | 19 | 112 | 8.0 | 25.7 | 0.00 | 0.00 | 0.00 | 62 | 1022.3 |
| 20260501155003 | 19 | 123 | 9.7 | 25.7 | 0.00 | 0.00 | 0.00 | 62 | 1022.3 |
| 20260501154218 | 19 | 124 | 9.7 | 19.3 | 0.00 | 0.00 | 0.00 | 62 | 1022.4 |
| 20260501153503 | 18 | 124 | 12.9 | 25.7 | 0.00 | 0.00 | 0.00 | 63 | 1022.3 |
| 20260501153003 | 19 | 122 | 11.3 | 25.7 | 0.00 | 0.00 | 0.00 | 62 | 1022.3 |
| 20260501152503 | 19 | 126 | 12.9 | 29.0 | 0.00 | 0.00 | 0.00 | 61 | 1022.2 |
| 20260501152218 | 19 | 127 | 12.9 | 29.0 | 0.00 | 0.00 | 0.00 | 61 | 1022.4 |
| 20260501151503 | 19 | 125 | 12.9 | 25.7 | 0.00 | 0.00 | 0.00 | 60 | 1022.3 |
| 20260501151218 | 19 | 127 | 12.9 | 25.7 | 0.00 | 0.00 | 0.00 | 60 | 1022.3 |
| 20260501150503 | 19 | 123 | 12.9 | 33.8 | 0.00 | 0.00 | 0.00 | 60 | 1022.1 |
| 20260501150218 | 19 | 121 | 14.5 | 33.8 | 0.00 | 0.00 | 0.00 | 60 | 1022.3 |
| 20260501144503 | 19 | 125 | 12.9 | 30.6 | 0.00 | 0.00 | 0.00 | 58 | 1022.1 |
| 20260501144218 | 20 | 122 | 12.9 | 29.0 | 0.00 | 0.00 | 0.00 | 57 | 1022.1 |
| 20260501143503 | 19 | 121 | 14.5 | 35.4 | 0.00 | 0.00 | 0.00 | 58 | 1022.2 |
| 20260501143003 | 20 | 120 | 12.9 | 25.7 | 0.00 | 0.00 | 0.00 | 57 | 1022.4 |
| 20260501142722 | 20 | 120 | 12.9 | 32.2 | 0.00 | 0.00 | 0.00 | 57 | 1022.1 |